Time,TemperatureF,DewpointF,PressureIn,WindDirection,WindDirectionDegrees,WindSpeedMPH,WindSpeedGustMPH,Humidity,HourlyPrecipIn,Conditions,Clouds,dailyrainin,SoftwareType,DateUTC
2013-05-06 00:09:00,32.5,25.0,30.14,ENE,64,4.0,5.0,74,0.00,,,0.00,weatherlink.com 1.10,2013-05-06 09:09:00,
2013-05-06 00:24:00,32.4,25.0,30.14,ENE,64,4.0,5.0,74,0.00,,,0.00,weatherlink.com 1.10,2013-05-06 09:24:00,
2013-05-06 00:39:00,33.5,26.0,30.14,ESE,107,4.0,5.0,74,0.00,,,0.00,weatherlink.com 1.10,2013-05-06 09:39:00,
2013-05-06 00:54:00,33.6,26.0,30.13,ESE,110,2.0,6.0,74,0.00,,,0.00,weatherlink.com 1.10,2013-05-06 09:54:00,
2013-05-06 01:09:00,33.1,26.0,30.14,East,86,5.0,6.0,74,0.00,,,0.00,weatherlink.com 1.10,2013-05-06 10:09:00,
2013-05-06 01:24:00,33.0,25.0,30.14,SE,125,4.0,5.0,73,0.00,,,0.00,weatherlink.com 1.10,2013-05-06 10:24:00,
2013-05-06 01:39:00,32.8,25.0,30.14,NE,56,5.0,7.0,73,0.00,,,0.00,weatherlink.com 1.10,2013-05-06 10:39:00,
2013-05-06 01:54:00,32.6,25.0,30.14,ENE,71,5.0,7.0,74,0.00,,,0.00,weatherlink.com 1.10,2013-05-06 10:54:00,
2013-05-06 02:09:00,33.1,25.0,30.15,NE,49,2.0,5.0,73,0.00,,,0.00,weatherlink.com 1.10,2013-05-06 11:09:00,
2013-05-06 02:24:00,32.6,25.0,30.15,ENE,60,0.0,5.0,74,0.00,,,0.00,weatherlink.com 1.10,2013-05-06 11:24:00,
2013-05-06 02:39:00,32.6,25.0,30.15,NE,55,2.0,6.0,73,0.00,,,0.00,weatherlink.com 1.10,2013-05-06 11:39:00,
2013-05-06 02:54:00,32.9,25.0,30.15,ESE,107,1.0,7.0,72,0.00,,,0.00,weatherlink.com 1.10,2013-05-06 11:54:00,
2013-05-06 03:09:00,33.8,27.0,30.15,SE,132,7.0,11.0,77,0.00,,,0.00,weatherlink.com 1.10,2013-05-06 12:09:00,
2013-05-06 03:25:00,34.1,26.0,30.16,East,84,4.0,6.0,72,0.00,,,0.00,weatherlink.com 1.10,2013-05-06 12:25:00,
2013-05-06 03:40:00,33.7,26.0,30.15,East,92,2.0,8.0,73,0.00,,,0.00,weatherlink.com 1.10,2013-05-06 12:40:00,
2013-05-06 03:55:00,33.8,26.0,30.16,SE,126,2.0,5.0,73,0.00,,,0.00,weatherlink.com 1.10,2013-05-06 12:55:00,
2013-05-06 04:10:00,33.4,26.0,30.16,East,96,0.0,5.0,74,0.00,,,0.00,weatherlink.com 1.10,2013-05-06 13:10:00,
2013-05-06 04:25:00,33.5,25.0,30.16,East,90,2.0,5.0,72,0.00,,,0.00,weatherlink.com 1.10,2013-05-06 13:25:00,
2013-05-06 04:40:00,33.3,25.0,30.16,ESE,105,5.0,5.0,72,0.00,,,0.00,weatherlink.com 1.10,2013-05-06 13:40:00,
2013-05-06 04:55:00,33.7,26.0,30.15,East,90,0.0,5.0,72,0.00,,,0.00,weatherlink.com 1.10,2013-05-06 13:55:00,
2013-05-06 05:10:00,33.3,26.0,30.16,ENE,77,5.0,5.0,73,0.00,,,0.00,weatherlink.com 1.10,2013-05-06 14:10:00,
2013-05-06 05:25:00,33.6,25.0,30.16,ENE,72,1.0,2.0,72,0.00,,,0.00,weatherlink.com 1.10,2013-05-06 14:25:00,
2013-05-06 05:40:00,33.8,26.0,30.16,ENE,76,0.0,5.0,72,0.00,,,0.00,weatherlink.com 1.10,2013-05-06 14:40:00,
2013-05-06 05:55:00,34.0,26.0,30.16,ENE,76,0.0,2.0,71,0.00,,,0.00,weatherlink.com 1.10,2013-05-06 14:55:00,
2013-05-06 06:10:00,34.0,26.0,30.16,ENE,76,0.0,4.0,72,0.00,,,0.00,weatherlink.com 1.10,2013-05-06 15:10:00,
2013-05-06 06:25:00,34.2,27.0,30.16,ENE,78,1.0,4.0,75,0.00,,,0.00,weatherlink.com 1.10,2013-05-06 15:25:00,
2013-05-06 06:40:00,35.1,28.0,30.16,ENE,68,0.0,4.0,75,0.00,,,0.00,weatherlink.com 1.10,2013-05-06 15:40:00,
2013-05-06 06:55:00,36.0,27.0,30.16,ENE,68,0.0,2.0,71,0.00,,,0.00,weatherlink.com 1.10,2013-05-06 15:55:00,
2013-05-06 07:10:00,36.6,29.0,30.17,South,178,1.0,3.0,74,0.00,,,0.00,weatherlink.com 1.10,2013-05-06 16:10:00,
2013-05-06 07:25:00,37.0,29.0,30.17,South,178,0.0,2.0,74,0.00,,,0.00,weatherlink.com 1.10,2013-05-06 16:25:00,
2013-05-06 07:40:00,37.5,29.0,30.17,South,178,1.0,2.0,72,0.00,,,0.00,weatherlink.com 1.10,2013-05-06 16:40:00,
2013-05-06 07:55:00,38.1,29.0,30.17,South,178,1.0,2.0,70,0.00,,,0.00,weatherlink.com 1.10,2013-05-06 16:55:00,
2013-05-06 08:10:00,37.9,29.0,30.18,SW,222,0.0,2.0,69,0.00,,,0.00,weatherlink.com 1.10,2013-05-06 17:10:00,
2013-05-06 08:25:00,38.5,28.0,30.18,SW,222,0.0,2.0,66,0.00,,,0.00,weatherlink.com 1.10,2013-05-06 17:25:00,
2013-05-06 08:40:00,39.3,27.0,30.17,South,171,0.0,5.0,61,0.00,,,0.00,weatherlink.com 1.10,2013-05-06 17:40:00,
2013-05-06 08:55:00,39.3,28.0,30.17,NW,321,2.0,7.0,63,0.00,,,0.00,weatherlink.com 1.10,2013-05-06 17:55:00,
2013-05-06 09:11:00,40.0,27.0,30.18,South,170,2.0,7.0,60,0.00,,,0.00,weatherlink.com 1.10,2013-05-06 18:11:00,
2013-05-06 09:26:00,40.3,26.0,30.18,SSE,165,6.0,7.0,56,0.00,,,0.00,weatherlink.com 1.10,2013-05-06 18:26:00,
2013-05-06 09:41:00,40.4,25.0,30.19,SSE,165,4.0,8.0,55,0.00,,,0.00,weatherlink.com 1.10,2013-05-06 18:41:00,
2013-05-06 09:56:00,40.4,26.0,30.18,SE,138,6.0,8.0,58,0.00,,,0.00,weatherlink.com 1.10,2013-05-06 18:56:00,
2013-05-06 10:11:00,40.3,26.0,30.19,SSW,197,2.0,9.0,57,0.00,,,0.00,weatherlink.com 1.10,2013-05-06 19:11:00,
2013-05-06 10:26:00,40.5,27.0,30.19,SSW,201,7.0,10.0,58,0.00,,,0.00,weatherlink.com 1.10,2013-05-06 19:26:00,
2013-05-06 10:41:00,41.3,27.0,30.19,SSW,192,6.0,8.0,58,0.00,,,0.00,weatherlink.com 1.10,2013-05-06 19:41:00,
2013-05-06 10:56:00,41.2,26.0,30.19,SSW,211,3.0,9.0,56,0.00,,,0.00,weatherlink.com 1.10,2013-05-06 19:56:00,
2013-05-06 11:11:00,41.1,27.0,30.19,SSW,202,10.0,11.0,57,0.00,,,0.00,weatherlink.com 1.10,2013-05-06 20:11:00,
2013-05-06 11:26:00,40.9,28.0,30.19,South,190,10.0,13.0,60,0.00,,,0.00,weatherlink.com 1.10,2013-05-06 20:26:00,
2013-05-06 11:41:00,40.8,28.0,30.20,South,178,6.0,13.0,60,0.00,,,0.00,weatherlink.com 1.10,2013-05-06 20:41:00,
2013-05-06 11:56:00,40.7,29.0,30.20,South,178,11.0,18.0,64,0.00,,,0.00,weatherlink.com 1.10,2013-05-06 20:56:00,
2013-05-06 12:11:00,40.9,28.0,30.20,SSE,155,10.0,13.0,60,0.00,,,0.00,weatherlink.com 1.10,2013-05-06 21:11:00,
2013-05-06 12:26:00,41.2,28.0,30.20,SSW,193,8.0,11.0,60,0.00,,,0.00,weatherlink.com 1.10,2013-05-06 21:26:00,
2013-05-06 12:41:00,41.0,28.0,30.20,South,182,9.0,12.0,61,0.00,,,0.00,weatherlink.com 1.10,2013-05-06 21:41:00,
2013-05-06 12:56:00,41.1,30.0,30.20,South,181,9.0,13.0,64,0.00,,,0.00,weatherlink.com 1.10,2013-05-06 21:56:00,
2013-05-06 13:11:00,41.4,29.0,30.20,SSW,207,2.0,12.0,62,0.00,,,0.00,weatherlink.com 1.10,2013-05-06 22:11:00,
2013-05-06 13:26:00,42.1,30.0,30.20,South,190,6.0,9.0,62,0.00,,,0.00,weatherlink.com 1.10,2013-05-06 22:26:00,
2013-05-06 13:41:00,42.3,30.0,30.20,SSW,206,7.0,12.0,62,0.00,,,0.00,weatherlink.com 1.10,2013-05-06 22:41:00,
2013-05-06 13:56:00,43.0,30.0,30.20,WSW,240,7.0,9.0,61,0.00,,,0.00,weatherlink.com 1.10,2013-05-06 22:56:00,
2013-05-06 14:11:00,41.8,31.0,30.20,WSW,251,7.0,12.0,65,0.00,,,0.00,weatherlink.com 1.10,2013-05-06 23:11:00,
2013-05-06 14:26:00,42.5,31.0,30.20,SW,214,5.0,9.0,64,0.00,,,0.00,weatherlink.com 1.10,2013-05-06 23:26:00,
2013-05-06 14:41:00,42.2,31.0,30.20,SW,223,6.0,9.0,64,0.00,,,0.00,weatherlink.com 1.10,2013-05-06 23:41:00,
2013-05-06 14:56:00,41.8,32.0,30.20,WSW,241,4.0,10.0,67,0.00,,,0.00,weatherlink.com 1.10,2013-05-06 23:56:00,
2013-05-06 15:11:00,40.7,31.0,30.20,West,278,5.0,10.0,69,0.00,,,0.00,weatherlink.com 1.10,2013-05-07 00:11:00,
2013-05-06 15:26:00,41.6,32.0,30.20,WNW,290,1.0,7.0,70,0.00,,,0.00,weatherlink.com 1.10,2013-05-07 00:26:00,
2013-05-06 15:41:00,42.8,31.0,30.20,NE,40,8.0,8.0,63,0.00,,,0.00,weatherlink.com 1.10,2013-05-07 00:41:00,
2013-05-06 15:56:00,42.3,31.0,30.20,NE,36,0.0,8.0,65,0.00,,,0.00,weatherlink.com 1.10,2013-05-07 00:56:00,
2013-05-06 16:11:00,43.2,30.0,30.20,South,177,8.0,9.0,61,0.00,,,0.00,weatherlink.com 1.10,2013-05-07 01:11:00,
2013-05-06 16:26:00,43.0,29.0,30.19,South,177,7.0,10.0,59,0.00,,,0.00,weatherlink.com 1.10,2013-05-07 01:26:00,
2013-05-06 16:41:00,42.8,28.0,30.19,South,170,10.0,11.0,56,0.00,,,0.00,weatherlink.com 1.10,2013-05-07 01:41:00,
2013-05-06 16:56:00,42.8,27.0,30.20,South,174,11.0,12.0,55,0.00,,,0.00,weatherlink.com 1.10,2013-05-07 01:56:00,
2013-05-06 17:11:00,42.9,28.0,30.20,South,173,7.0,11.0,55,0.00,,,0.00,weatherlink.com 1.10,2013-05-07 02:11:00,
2013-05-06 17:26:00,42.7,27.0,30.20,South,175,8.0,10.0,55,0.00,,,0.00,weatherlink.com 1.10,2013-05-07 02:26:00,
2013-05-06 17:41:00,42.6,28.0,30.20,SSE,155,9.0,11.0,57,0.00,,,0.00,weatherlink.com 1.10,2013-05-07 02:41:00,
2013-05-06 17:56:00,42.6,27.0,30.20,South,175,8.0,10.0,54,0.00,,,0.00,weatherlink.com 1.10,2013-05-07 02:56:00,
2013-05-06 18:11:00,42.5,28.0,30.20,SSE,167,8.0,9.0,56,0.00,,,0.00,weatherlink.com 1.10,2013-05-07 03:11:00,
2013-05-06 18:26:00,42.7,27.0,30.20,SE,144,9.0,11.0,54,0.00,,,0.00,weatherlink.com 1.10,2013-05-07 03:26:00,
2013-05-06 18:41:00,42.6,26.0,30.20,SSE,156,6.0,9.0,53,0.00,,,0.00,weatherlink.com 1.10,2013-05-07 03:41:00,
2013-05-06 18:56:00,42.6,27.0,30.20,SE,146,6.0,8.0,54,0.00,,,0.00,weatherlink.com 1.10,2013-05-07 03:56:00,
2013-05-06 19:11:00,42.6,25.0,30.20,East,99,6.0,9.0,50,0.00,,,0.00,weatherlink.com 1.10,2013-05-07 04:11:00,
2013-05-06 19:26:00,42.4,26.0,30.20,ESE,115,4.0,10.0,52,0.00,,,0.00,weatherlink.com 1.10,2013-05-07 04:26:00,
2013-05-06 19:41:00,42.2,25.0,30.20,East,86,2.0,10.0,51,0.00,,,0.00,weatherlink.com 1.10,2013-05-07 04:41:00,
2013-05-06 19:56:00,41.9,25.0,30.20,ESE,121,4.0,8.0,52,0.00,,,0.00,weatherlink.com 1.10,2013-05-07 04:56:00,
2013-05-06 20:11:00,41.6,25.0,30.20,East,99,5.0,8.0,53,0.00,,,0.00,weatherlink.com 1.10,2013-05-07 05:11:00,
2013-05-06 20:26:00,41.2,26.0,30.20,SE,130,7.0,10.0,54,0.00,,,0.00,weatherlink.com 1.10,2013-05-07 05:26:00,
2013-05-06 20:41:00,41.0,27.0,30.21,SE,146,5.0,8.0,58,0.00,,,0.00,weatherlink.com 1.10,2013-05-07 05:41:00,
2013-05-06 20:57:00,40.7,27.0,30.21,East,101,3.0,8.0,59,0.00,,,0.00,weatherlink.com 1.10,2013-05-07 05:57:00,
2013-05-06 21:12:00,40.5,28.0,30.21,ESE,111,2.0,5.0,61,0.00,,,0.00,weatherlink.com 1.10,2013-05-07 06:12:00,
2013-05-06 21:27:00,40.3,28.0,30.22,ESE,122,4.0,5.0,62,0.00,,,0.00,weatherlink.com 1.10,2013-05-07 06:27:00,
2013-05-06 21:42:00,40.2,28.0,30.22,East,92,1.0,4.0,61,0.00,,,0.00,weatherlink.com 1.10,2013-05-07 06:42:00,
2013-05-06 21:57:00,39.9,29.0,30.22,East,94,1.0,5.0,64,0.00,,,0.00,weatherlink.com 1.10,2013-05-07 06:57:00,
2013-05-06 22:12:00,39.8,29.0,30.22,ESE,123,5.0,8.0,65,0.00,,,0.00,weatherlink.com 1.10,2013-05-07 07:12:00,
2013-05-06 22:27:00,39.7,29.0,30.22,ESE,110,1.0,7.0,65,0.00,,,0.00,weatherlink.com 1.10,2013-05-07 07:27:00,
2013-05-06 22:42:00,39.6,29.0,30.22,ESE,119,2.0,5.0,65,0.00,,,0.00,weatherlink.com 1.10,2013-05-07 07:42:00,
2013-05-06 22:57:00,39.4,29.0,30.23,ESE,105,2.0,5.0,66,0.00,,,0.00,weatherlink.com 1.10,2013-05-07 07:57:00,
2013-05-06 23:12:00,39.3,29.0,30.23,ESE,116,0.0,6.0,66,0.00,,,0.00,weatherlink.com 1.10,2013-05-07 08:12:00,
2013-05-06 23:27:00,39.3,28.0,30.22,ESE,105,1.0,8.0,65,0.00,,,0.00,weatherlink.com 1.10,2013-05-07 08:27:00,
2013-05-06 23:42:00,39.1,29.0,30.22,SE,128,1.0,6.0,68,0.00,,,0.00,weatherlink.com 1.10,2013-05-07 08:42:00,
2013-05-06 23:57:00,38.0,29.0,30.23,SE,128,0.0,2.0,69,0.00,,,0.00,weatherlink.com 1.10,2013-05-07 08:57:00,